Regional Weather Roundup
Issued by NWS

Home | Current Version | Previous Version | Text Only | Print | Product List | Glossary On
Versions: 1 2 3 4 5 6 7 8 9 10 11 12 13 14 15 16 17 18 19 20 21 22 23 24 25 26 27 28 29 30 31 32 33 34 35 36 37 38 39 40 41 42 43 44 45 46 47 48 49 50
000
ASUS43 KLMK 211610
RWRKY
KENTUCKY REGIONAL WEATHER ROUNDUP
NATIONAL WEATHER SERVICE LOUISVILLE KY
1200 PM EDT MON AUG 21 2017

NOTE "FAIR" INDICATES FEW OR NO CLOUDS BELOW 12,000 FEET
WITH NO SIGNIFICANT WEATHER AND/OR OBSTRUCTIONS TO VISIBILITY.

KYZ001>023-026-027-061>063-070>075-211700-
WESTERN AND SOUTH CENTRAL KENTUCKY

CITY           SKY/WX    TMP DP  RH WIND       PRES   REMARKS
PADUCAH        SUNNY     90  73  57 VRB3      30.14S HX  98
HENDERSON      SUNNY     88  71  57 SW6       30.14F HX  94
OWENSBORO      SUNNY     89  71  55 S6        30.15S HX  95
HOPKINSVILLE   SUNNY     89  73  58 S7        30.17R HX  97
BOWLING GREEN  SUNNY     89  72  56 W6        30.17F HX  96
GLASGOW        SUNNY     87  70  58 SW6       30.18F HX  91
$$

KYZ024-025-028>034-038-045-046-053-211700-
NORTH CENTRAL KENTUCKY

CITY           SKY/WX    TMP DP  RH WIND       PRES   REMARKS
LOUISVILLE/SDF PTSUNNY   89  68  49 S7        30.16S HX  93
LOUISVILLE/LOU MOSUNNY   88  69  53 VRB3      30.17S HX  92
FORT KNOX      SUNNY     89  70  51 S8        30.16S HX  94
$$

KYZ035>037-039>044-047>052-055>060-089>105-211700-
NORTHEAST KENTUCKY

CITY           SKY/WX    TMP DP  RH WIND       PRES   REMARKS
LEXINGTON      SUNNY     87  67  51 SW9       30.20F HX  90
COVINGTON      MOSUNNY   86  71  60 SW9       30.17S HX  91
FRANKFORT      SUNNY     88  66  48 SW7       30.18S HX  90
$$

KYZ054-064>069-076>088-106>120-211700-
SOUTHEAST KENTUCKY

CITY           SKY/WX    TMP DP  RH WIND       PRES   REMARKS
JACKSON        SUNNY     84  71  65 VRB3      30.24S
LONDON         SUNNY     85  68  56 CALM      30.23S
SOMERSET       SUNNY     82  70  65 S5        30.22F
MIDDLESBORO    SUNNY     85  73  67 CALM      30.24F HX  91
MONTICELLO     SUNNY     88  71  57 W14       30.23S HX  94
$$





USA.gov is the U.S. government's official web portal to all federal, state and local government web resources and services.